OIMC  Sarakhs Airport

Add Bookmark

Sarakhs, Iran

Status IATA
Operational CKT
Latitude Longitude
36° 30' 4" N 61° 3' 53" E
36.501202 61.064899
Local (DST + 5) UTC (GMT + 4)
Dec 19, 2014 01:37 Dec 19, 2014 10:07
Sunrise-Sunset Local UTC
Begin Civil Twilight 06:02 02:32
Sunrise 06:31 03:01
Sunset 04:14 12:44
End Civil Twilight 04:43 13:13

Current Weather

METAR Observed VFR
OIMC 190800Z 26008KT CAVOK 16/04 Q1020 Fri, Dec 19, 2014 @ 08:00 UTC
(2 Hours, 7 Minutes ago)
Visual Flight Rules
Wind Visibility Clouds Conditions
260° at 8 knots (15 kph) 10 km or more
  • Clear skies
  • No significant weather
Temperatures Readings Precipitation
Current Temp 16°C (61°F)
Dewpoint 4°C (39°F)
Humidity 45%
Altimeter 30.12"Hg
Sea Level Pressure 1020mb
Field Elevation 944.88'
None Recorded

Additional weather within a 185.2km radius of OIMC

Map ICAO Location
OIMM 130.8km W (257°)
UTAM 144.5km N (030°)

24 Hour Weather History

Loading
-

24 Hour Weather Graphs

Loading
-

CheckWX.com is intended as a tool to help pilots better visualize weather data. It is not intended as a substitute for an official weather briefing obtained from a Flight Service Station. CheckWX.com does not meet the FAA requirements for an official pre-flight weather briefing. Therefore, it's important that pilots still call and obtain an official FSS pre-flight weather briefing.